Time,TemperatureF,DewpointF,PressureIn,WindDirection,WindDirectionDegrees,WindSpeedMPH,WindSpeedGustMPH,Humidity,HourlyPrecipIn,Conditions,Clouds,dailyrainin,SoftwareType,DateUTC
2013-02-12 00:00:00,40.1,38.5,29.91,NNW,338,0.0,0.0,94,0.00,,,0.00,WUHU216HW,2013-02-12 08:00:00,
2013-02-12 00:05:00,40.1,38.5,29.91,NNW,338,0.0,0.0,94,0.00,,,0.00,WUHU216HW,2013-02-12 08:05:00,
2013-02-12 00:10:00,40.1,38.5,29.91,NNW,338,0.0,0.0,94,0.00,,,0.00,WUHU216HW,2013-02-12 08:10:00,
2013-02-12 00:15:00,40.1,38.5,29.91,NNW,338,0.0,0.0,94,0.00,,,0.00,WUHU216HW,2013-02-12 08:15:00,
2013-02-12 00:20:00,40.1,38.5,29.91,NNW,338,0.0,0.0,94,0.00,,,0.00,WUHU216HW,2013-02-12 08:20:00,
2013-02-12 00:25:00,40.0,38.3,29.91,NNW,338,0.0,0.0,94,0.00,,,0.00,WUHU216HW,2013-02-12 08:25:00,
2013-02-12 00:30:00,40.0,38.3,29.91,NNW,338,0.0,0.0,94,0.00,,,0.00,WUHU216HW,2013-02-12 08:30:00,
2013-02-12 00:35:00,40.0,38.3,29.91,NNW,338,0.0,0.0,94,0.00,,,0.00,WUHU216HW,2013-02-12 08:35:00,
2013-02-12 00:40:00,40.1,38.5,29.91,NNW,338,0.0,0.0,94,0.00,,,0.00,WUHU216HW,2013-02-12 08:40:00,
2013-02-12 00:45:00,40.0,38.3,29.91,NNW,338,0.0,0.0,94,0.00,,,0.00,WUHU216HW,2013-02-12 08:45:00,
2013-02-12 00:50:00,40.1,38.5,29.91,NNW,338,0.0,0.0,94,0.00,,,0.00,WUHU216HW,2013-02-12 08:50:00,
2013-02-12 00:55:00,40.1,38.5,29.91,NNW,338,0.0,0.0,94,0.00,,,0.00,WUHU216HW,2013-02-12 08:55:00,
2013-02-12 01:00:00,40.1,38.5,29.91,NNW,338,0.0,0.0,94,0.00,,,0.00,WUHU216HW,2013-02-12 09:00:00,
2013-02-12 01:05:00,40.0,38.3,29.91,NNW,338,0.0,0.0,94,0.00,,,0.00,WUHU216HW,2013-02-12 09:05:00,
2013-02-12 01:10:00,40.0,38.3,29.91,NNW,338,0.0,0.0,94,0.00,,,0.00,WUHU216HW,2013-02-12 09:10:00,
2013-02-12 01:15:00,39.8,38.2,29.91,NNW,338,0.0,0.0,94,0.00,,,0.00,WUHU216HW,2013-02-12 09:15:00,
2013-02-12 01:20:00,39.6,38.0,29.91,NNW,338,0.0,0.0,94,0.00,,,0.00,WUHU216HW,2013-02-12 09:20:00,
2013-02-12 01:25:00,39.6,38.0,29.91,NNW,338,0.0,0.0,94,0.00,,,0.00,WUHU216HW,2013-02-12 09:25:00,
2013-02-12 01:30:00,39.4,37.8,29.91,NNW,338,0.0,0.0,94,0.00,,,0.00,WUHU216HW,2013-02-12 09:30:00,
2013-02-12 01:35:00,39.4,37.8,29.91,NNW,338,0.0,0.0,94,0.00,,,0.00,WUHU216HW,2013-02-12 09:35:00,
2013-02-12 01:40:00,39.4,37.8,29.91,NNW,338,0.2,0.7,94,0.00,,,0.00,WUHU216HW,2013-02-12 09:40:00,
2013-02-12 01:45:00,39.4,38.1,29.91,NNW,338,1.1,1.1,95,0.00,,,0.00,WUHU216HW,2013-02-12 09:45:00,
2013-02-12 01:50:00,39.4,37.8,29.91,SSE,158,0.0,1.1,94,0.00,,,0.00,WUHU216HW,2013-02-12 09:50:00,
2013-02-12 01:55:00,39.6,38.0,29.91,SSE,158,0.0,1.1,94,0.00,,,0.00,WUHU216HW,2013-02-12 09:55:00,
2013-02-12 02:00:00,39.6,38.0,29.91,SSE,158,0.0,0.0,94,0.00,,,0.00,WUHU216HW,2013-02-12 10:00:00,
2013-02-12 02:05:00,39.6,38.0,29.91,SSE,158,0.0,0.4,94,0.00,,,0.00,WUHU216HW,2013-02-12 10:05:00,
2013-02-12 02:10:00,39.6,38.3,29.91,SSE,158,0.0,0.4,95,0.00,,,0.00,WUHU216HW,2013-02-12 10:10:00,
2013-02-12 02:15:00,39.8,38.4,29.91,SSE,158,0.0,0.4,95,0.00,,,0.00,WUHU216HW,2013-02-12 10:15:00,
2013-02-12 02:20:00,39.8,38.4,29.92,SSE,158,0.0,0.4,95,0.00,,,0.00,WUHU216HW,2013-02-12 10:20:00,
2013-02-12 02:25:00,39.8,38.4,29.92,SSW,203,0.0,0.0,95,0.00,,,0.00,WUHU216HW,2013-02-12 10:25:00,
2013-02-12 02:30:00,39.8,38.4,29.91,SSW,203,0.0,0.0,95,0.00,,,0.00,WUHU216HW,2013-02-12 10:30:00,
2013-02-12 02:35:00,39.8,38.4,29.92,SSW,203,0.0,0.0,95,0.00,,,0.00,WUHU216HW,2013-02-12 10:35:00,
2013-02-12 02:40:00,40.0,38.6,29.91,South,180,0.0,0.0,95,0.00,,,0.00,WUHU216HW,2013-02-12 10:40:00,
2013-02-12 02:45:00,40.0,38.6,29.91,South,180,0.0,0.0,95,0.00,,,0.00,WUHU216HW,2013-02-12 10:45:00,
2013-02-12 02:50:00,40.0,38.6,29.91,South,180,0.0,0.0,95,0.00,,,0.00,WUHU216HW,2013-02-12 10:50:00,
2013-02-12 02:55:00,40.0,38.6,29.92,South,180,0.0,0.0,95,0.00,,,0.00,WUHU216HW,2013-02-12 10:55:00,
2013-02-12 03:00:00,40.0,38.6,29.92,SSW,203,0.7,0.9,95,0.00,,,0.00,WUHU216HW,2013-02-12 11:00:00,
2013-02-12 03:05:00,40.0,38.6,29.92,SSW,203,0.0,0.9,95,0.00,,,0.00,WUHU216HW,2013-02-12 11:05:00,
2013-02-12 03:10:00,40.0,38.6,29.92,SE,135,0.0,0.7,95,0.00,,,0.00,WUHU216HW,2013-02-12 11:10:00,
2013-02-12 03:15:00,40.0,38.6,29.92,SE,135,0.0,0.4,95,0.00,,,0.00,WUHU216HW,2013-02-12 11:15:00,
2013-02-12 03:20:00,40.0,38.6,29.92,SE,135,0.0,0.0,95,0.00,,,0.00,WUHU216HW,2013-02-12 11:20:00,
2013-02-12 03:25:00,40.0,38.6,29.92,SE,135,0.0,0.0,95,0.00,,,0.00,WUHU216HW,2013-02-12 11:25:00,
2013-02-12 03:30:00,40.0,38.6,29.92,SE,135,0.0,0.0,95,0.00,,,0.00,WUHU216HW,2013-02-12 11:30:00,
2013-02-12 03:35:00,40.0,38.6,29.92,SE,135,0.0,0.0,95,0.00,,,0.00,WUHU216HW,2013-02-12 11:35:00,
2013-02-12 03:40:00,40.1,38.8,29.92,SE,135,0.0,0.0,95,0.00,,,0.00,WUHU216HW,2013-02-12 11:40:00,
2013-02-12 03:45:00,40.1,38.8,29.92,SE,135,0.0,0.0,95,0.00,,,0.00,WUHU216HW,2013-02-12 11:45:00,
2013-02-12 03:50:00,40.1,38.8,29.91,SE,135,0.0,0.0,95,0.00,,,0.00,WUHU216HW,2013-02-12 11:50:00,
2013-02-12 03:55:00,40.1,38.8,29.91,SE,135,0.0,0.0,95,0.00,,,0.00,WUHU216HW,2013-02-12 11:55:00,
2013-02-12 04:00:00,40.1,38.8,29.92,SE,135,0.0,0.0,95,0.00,,,0.00,WUHU216HW,2013-02-12 12:00:00,
2013-02-12 04:05:00,40.3,39.0,29.92,SE,135,0.0,0.0,95,0.00,,,0.00,WUHU216HW,2013-02-12 12:05:00,
2013-02-12 04:10:00,40.3,39.2,29.92,SE,135,0.0,0.0,96,0.00,,,0.00,WUHU216HW,2013-02-12 12:10:00,
2013-02-12 04:15:00,40.3,39.2,29.92,SE,135,0.0,0.0,96,0.00,,,0.00,WUHU216HW,2013-02-12 12:15:00,
2013-02-12 04:20:00,40.3,39.2,29.92,SE,135,0.0,0.0,96,0.00,,,0.00,WUHU216HW,2013-02-12 12:20:00,
2013-02-12 04:25:00,40.3,39.2,29.92,SE,135,0.0,0.0,96,0.00,,,0.00,WUHU216HW,2013-02-12 12:25:00,
2013-02-12 04:30:00,40.3,39.2,29.92,SE,135,0.0,0.0,96,0.00,,,0.00,WUHU216HW,2013-02-12 12:30:00,
2013-02-12 04:35:00,40.3,39.2,29.92,SE,135,0.0,0.0,96,0.00,,,0.00,WUHU216HW,2013-02-12 12:35:00,
2013-02-12 04:40:00,40.3,39.2,29.91,SE,135,0.0,0.0,96,0.00,,,0.00,WUHU216HW,2013-02-12 12:40:00,
2013-02-12 04:45:00,40.5,39.4,29.92,SE,135,0.0,0.0,96,0.00,,,0.00,WUHU216HW,2013-02-12 12:45:00,
2013-02-12 04:50:00,40.5,39.4,29.91,SE,135,0.0,0.0,96,0.00,,,0.00,WUHU216HW,2013-02-12 12:50:00,
2013-02-12 04:55:00,40.5,39.4,29.91,NE,45,0.7,0.9,96,0.00,,,0.00,WUHU216HW,2013-02-12 12:55:00,
2013-02-12 05:00:00,40.5,39.4,29.91,North,0,0.2,0.9,96,0.00,,,0.00,WUHU216HW,2013-02-12 13:00:00,
2013-02-12 05:05:00,40.5,39.4,29.91,NNW,338,0.0,0.7,96,0.00,,,0.00,WUHU216HW,2013-02-12 13:05:00,
2013-02-12 05:10:00,40.7,39.6,29.91,NNW,338,0.0,0.4,96,0.00,,,0.00,WUHU216HW,2013-02-12 13:10:00,
2013-02-12 05:15:00,40.7,39.6,29.91,North,0,0.0,0.4,96,0.00,,,0.00,WUHU216HW,2013-02-12 13:15:00,
2013-02-12 05:20:00,40.7,39.6,29.91,North,0,0.0,0.4,96,0.00,,,0.00,WUHU216HW,2013-02-12 13:20:00,
2013-02-12 05:25:00,40.7,39.6,29.91,NE,45,0.0,0.2,96,0.00,,,0.00,WUHU216HW,2013-02-12 13:25:00,
2013-02-12 05:30:00,40.9,39.8,29.91,NE,45,0.0,0.2,96,0.00,,,0.00,WUHU216HW,2013-02-12 13:30:00,
2013-02-12 05:35:00,40.9,39.8,29.91,NE,45,0.2,0.9,96,0.00,,,0.00,WUHU216HW,2013-02-12 13:35:00,
2013-02-12 05:40:00,40.9,39.8,29.91,NNE,23,1.1,1.1,96,0.00,,,0.00,WUHU216HW,2013-02-12 13:40:00,
2013-02-12 05:45:00,40.9,39.8,29.91,NNE,23,0.2,1.1,96,0.00,,,0.00,WUHU216HW,2013-02-12 13:45:00,
2013-02-12 05:50:00,41.0,40.0,29.91,NNE,23,0.7,1.1,96,0.00,,,0.00,WUHU216HW,2013-02-12 13:50:00,
2013-02-12 05:55:00,41.0,40.0,29.91,NNE,23,0.0,1.1,96,0.00,,,0.00,WUHU216HW,2013-02-12 13:55:00,
2013-02-12 06:00:00,41.0,40.0,29.91,NNE,23,0.0,0.7,96,0.00,,,0.00,WUHU216HW,2013-02-12 14:00:00,
2013-02-12 06:05:00,41.0,40.0,29.91,NNE,23,0.0,0.0,96,0.00,,,0.00,WUHU216HW,2013-02-12 14:05:00,
2013-02-12 06:10:00,41.2,40.1,29.92,NNE,23,0.0,0.0,96,0.00,,,0.00,WUHU216HW,2013-02-12 14:10:00,
2013-02-12 06:15:00,41.0,40.0,29.92,NNE,23,0.0,0.0,96,0.00,,,0.00,WUHU216HW,2013-02-12 14:15:00,
2013-02-12 06:20:00,41.2,40.1,29.92,NNE,23,0.0,0.0,96,0.00,,,0.00,WUHU216HW,2013-02-12 14:20:00,
2013-02-12 06:25:00,41.2,40.1,29.92,NNE,23,0.0,0.0,96,0.00,,,0.00,WUHU216HW,2013-02-12 14:25:00,
2013-02-12 06:30:00,41.2,40.1,29.92,NNE,23,0.0,0.0,96,0.00,,,0.00,WUHU216HW,2013-02-12 14:30:00,
2013-02-12 06:35:00,41.2,40.1,29.92,NNE,23,0.0,0.0,96,0.00,,,0.00,WUHU216HW,2013-02-12 14:35:00,
2013-02-12 06:40:00,41.2,40.1,29.92,NNE,23,0.4,0.4,96,0.00,,,0.00,WUHU216HW,2013-02-12 14:40:00,
2013-02-12 06:45:00,41.2,40.1,29.93,NNE,23,0.0,0.4,96,0.00,,,0.00,WUHU216HW,2013-02-12 14:45:00,
2013-02-12 06:50:00,41.4,40.3,29.93,NNE,23,0.0,0.4,96,0.00,,,0.00,WUHU216HW,2013-02-12 14:50:00,
2013-02-12 06:55:00,41.2,40.1,29.93,NNE,23,0.4,0.7,96,0.00,,,0.00,WUHU216HW,2013-02-12 14:55:00,
2013-02-12 07:00:00,41.4,40.3,29.93,North,0,0.9,0.9,96,0.00,,,0.00,WUHU216HW,2013-02-12 15:00:00,
2013-02-12 07:05:00,41.4,40.3,29.93,North,0,0.0,0.9,96,0.00,,,0.00,WUHU216HW,2013-02-12 15:05:00,
2013-02-12 07:10:00,41.4,40.3,29.93,North,0,0.0,0.9,96,0.00,,,0.00,WUHU216HW,2013-02-12 15:10:00,
2013-02-12 07:15:00,41.4,40.3,29.93,North,0,0.0,0.2,96,0.00,,,0.00,WUHU216HW,2013-02-12 15:15:00,
2013-02-12 07:20:00,41.4,40.3,29.93,North,0,0.0,0.2,96,0.00,,,0.00,WUHU216HW,2013-02-12 15:20:00,
2013-02-12 07:25:00,41.4,40.3,29.93,North,0,0.0,0.0,96,0.00,,,0.00,WUHU216HW,2013-02-12 15:25:00,
2013-02-12 07:30:00,41.4,40.3,29.93,North,0,0.0,0.0,96,0.00,,,0.00,WUHU216HW,2013-02-12 15:30:00,
2013-02-12 07:35:00,41.4,40.3,29.93,North,0,0.0,0.0,96,0.00,,,0.00,WUHU216HW,2013-02-12 15:35:00,
2013-02-12 07:40:00,41.6,40.5,29.93,North,0,0.0,0.0,96,0.00,,,0.00,WUHU216HW,2013-02-12 15:40:00,
2013-02-12 07:45:00,41.6,40.5,29.94,North,0,0.0,0.0,96,0.00,,,0.00,WUHU216HW,2013-02-12 15:45:00,
2013-02-12 07:50:00,41.6,40.5,29.94,North,0,0.0,0.0,96,0.00,,,0.00,WUHU216HW,2013-02-12 15:50:00,
2013-02-12 07:55:00,41.6,40.5,29.94,North,0,0.0,0.0,96,0.00,,,0.00,WUHU216HW,2013-02-12 15:55:00,
2013-02-12 08:00:00,41.8,40.7,29.94,North,0,0.0,0.0,96,0.00,,,0.00,WUHU216HW,2013-02-12 16:00:00,
2013-02-12 08:05:00,41.8,40.7,29.94,North,0,0.0,0.0,96,0.00,,,0.00,WUHU216HW,2013-02-12 16:05:00,
2013-02-12 08:10:00,41.8,40.7,29.94,North,0,0.0,0.0,96,0.00,,,0.00,WUHU216HW,2013-02-12 16:10:00,
2013-02-12 08:15:00,41.9,40.9,29.94,North,0,0.0,0.0,96,0.00,,,0.00,WUHU216HW,2013-02-12 16:15:00,
2013-02-12 08:20:00,42.1,41.0,29.94,North,0,0.9,0.9,96,0.00,,,0.00,WUHU216HW,2013-02-12 16:20:00,
2013-02-12 08:25:00,42.3,41.2,29.94,North,0,0.2,0.9,96,0.00,,,0.00,WUHU216HW,2013-02-12 16:25:00,
2013-02-12 08:30:00,42.3,41.2,29.94,North,0,0.0,0.9,96,0.00,,,0.00,WUHU216HW,2013-02-12 16:30:00,
2013-02-12 08:35:00,42.5,41.4,29.94,North,0,0.4,1.1,96,0.00,,,0.00,WUHU216HW,2013-02-12 16:35:00,
2013-02-12 08:40:00,42.8,41.8,29.94,NNE,23,0.0,1.1,96,0.00,,,0.00,WUHU216HW,2013-02-12 16:40:00,
2013-02-12 08:45:00,42.8,41.8,29.95,NNE,23,0.0,1.1,96,0.00,,,0.00,WUHU216HW,2013-02-12 16:45:00,
2013-02-12 08:50:00,43.0,41.9,29.95,NNE,23,0.0,0.0,96,0.00,,,0.00,WUHU216HW,2013-02-12 16:50:00,
2013-02-12 08:55:00,43.2,42.1,29.95,NNE,23,0.0,0.7,96,0.00,,,0.00,WUHU216HW,2013-02-12 16:55:00,
2013-02-12 09:00:00,43.4,42.3,29.94,ESE,113,0.0,0.7,96,0.00,,,0.00,WUHU216HW,2013-02-12 17:00:00,
2013-02-12 09:05:00,43.6,42.5,29.95,NE,45,0.7,0.9,96,0.00,,,0.00,WUHU216HW,2013-02-12 17:05:00,
2013-02-12 09:10:00,43.6,42.5,29.95,NE,45,0.4,0.9,96,0.00,,,0.00,WUHU216HW,2013-02-12 17:10:00,
2013-02-12 09:15:00,43.7,42.7,29.96,NE,45,0.0,0.7,96,0.00,,,0.00,WUHU216HW,2013-02-12 17:15:00,
2013-02-12 09:20:00,43.7,42.7,29.95,NE,45,0.0,0.4,96,0.00,,,0.00,WUHU216HW,2013-02-12 17:20:00,
2013-02-12 09:25:00,43.9,42.8,29.96,NE,45,0.0,0.0,96,0.00,,,0.00,WUHU216HW,2013-02-12 17:25:00,
2013-02-12 09:30:00,43.9,42.8,29.96,NE,45,0.2,0.7,96,0.00,,,0.00,WUHU216HW,2013-02-12 17:30:00,
2013-02-12 09:35:00,44.1,43.0,29.95,NE,45,0.0,0.7,96,0.00,,,0.00,WUHU216HW,2013-02-12 17:35:00,
2013-02-12 09:40:00,44.3,43.2,29.95,NNE,23,1.8,1.8,96,0.00,,,0.00,WUHU216HW,2013-02-12 17:40:00,
2013-02-12 09:45:00,44.5,43.4,29.95,ENE,68,0.4,1.8,96,0.00,,,0.00,WUHU216HW,2013-02-12 17:45:00,
2013-02-12 09:50:00,44.5,43.4,29.95,NE,45,1.8,1.8,96,0.00,,,0.00,WUHU216HW,2013-02-12 17:50:00,
2013-02-12 09:55:00,44.6,43.6,29.95,NNE,23,0.9,1.8,96,0.00,,,0.00,WUHU216HW,2013-02-12 17:55:00,
2013-02-12 10:00:00,44.8,43.7,29.95,NNE,23,0.9,1.8,96,0.00,,,0.00,WUHU216HW,2013-02-12 18:00:00,
2013-02-12 10:05:00,45.0,43.9,29.95,ESE,113,0.0,1.8,96,0.00,,,0.00,WUHU216HW,2013-02-12 18:05:00,
2013-02-12 10:10:00,45.0,43.9,29.95,SSE,158,0.0,1.6,96,0.00,,,0.00,WUHU216HW,2013-02-12 18:10:00,
2013-02-12 10:15:00,45.0,43.9,29.95,ESE,113,1.1,1.1,96,0.00,,,0.00,WUHU216HW,2013-02-12 18:15:00,
2013-02-12 10:20:00,45.2,44.1,29.95,NNE,23,1.8,1.8,96,0.00,,,0.00,WUHU216HW,2013-02-12 18:20:00,
2013-02-12 10:25:00,45.4,44.3,29.95,North,0,0.7,1.8,96,0.00,,,0.00,WUHU216HW,2013-02-12 18:25:00,
2013-02-12 10:30:00,45.4,44.3,29.95,ESE,113,0.4,1.8,96,0.00,,,0.00,WUHU216HW,2013-02-12 18:30:00,
2013-02-12 10:35:00,45.4,44.3,29.96,NNE,23,1.1,2.0,96,0.00,,,0.00,WUHU216HW,2013-02-12 18:35:00,
2013-02-12 10:40:00,45.4,44.0,29.96,NE,45,0.2,2.5,95,0.00,,,0.00,WUHU216HW,2013-02-12 18:40:00,
2013-02-12 10:45:00,45.4,44.3,29.96,North,0,0.2,2.5,96,0.00,,,0.00,WUHU216HW,2013-02-12 18:45:00,
2013-02-12 10:50:00,45.4,44.0,29.96,North,0,1.1,1.1,95,0.00,,,0.00,WUHU216HW,2013-02-12 18:50:00,
2013-02-12 10:56:00,45.4,44.0,29.96,NNE,23,0.7,1.8,95,0.00,,,0.00,WUHU216HW,2013-02-12 18:56:00,
2013-02-12 11:01:00,45.4,44.0,29.96,NNE,23,1.1,1.8,95,0.00,,,0.00,WUHU216HW,2013-02-12 19:01:00,
2013-02-12 11:06:00,45.4,44.0,29.96,NNE,23,0.2,1.1,95,0.00,,,0.00,WUHU216HW,2013-02-12 19:06:00,
2013-02-12 11:11:00,45.4,44.0,29.96,NNE,23,0.0,1.1,95,0.00,,,0.00,WUHU216HW,2013-02-12 19:11:00,
2013-02-12 11:16:00,45.5,44.2,29.96,NNE,23,0.2,1.1,95,0.00,,,0.00,WUHU216HW,2013-02-12 19:16:00,
2013-02-12 11:21:00,45.5,44.2,29.96,North,0,1.3,1.3,95,0.00,,,0.00,WUHU216HW,2013-02-12 19:21:00,
2013-02-12 11:26:00,45.7,44.4,29.96,North,0,1.3,2.5,95,0.00,,,0.00,WUHU216HW,2013-02-12 19:26:00,
2013-02-12 11:31:00,46.1,44.7,29.96,NNE,23,1.6,2.5,95,0.00,,,0.00,WUHU216HW,2013-02-12 19:31:00,
2013-02-12 11:36:00,46.4,45.1,29.96,NNE,23,1.8,3.4,95,0.00,,,0.00,WUHU216HW,2013-02-12 19:36:00,
2013-02-12 11:41:00,46.6,45.3,29.96,North,0,1.8,3.4,95,0.00,,,0.00,WUHU216HW,2013-02-12 19:41:00,
2013-02-12 11:46:00,46.8,45.5,29.94,NE,45,2.2,3.4,95,0.00,,,0.00,WUHU216HW,2013-02-12 19:46:00,
2013-02-12 11:51:00,47.2,46.1,29.94,North,0,2.2,2.5,96,0.00,,,0.00,WUHU216HW,2013-02-12 19:51:00,
2013-02-12 11:56:00,47.3,46.3,29.94,North,0,2.2,3.4,96,0.00,,,0.00,WUHU216HW,2013-02-12 19:56:00,
2013-02-12 12:01:00,47.5,46.4,29.94,NNE,23,2.5,4.7,96,0.00,,,0.00,WUHU216HW,2013-02-12 20:01:00,
2013-02-12 12:06:00,47.7,46.4,29.94,ESE,113,1.1,5.1,95,0.00,,,0.00,WUHU216HW,2013-02-12 20:06:00,
2013-02-12 12:11:00,47.5,46.2,29.95,ESE,113,1.8,5.1,95,0.00,,,0.00,WUHU216HW,2013-02-12 20:11:00,
2013-02-12 12:16:00,47.5,46.2,29.95,ENE,68,1.1,2.9,95,0.00,,,0.00,WUHU216HW,2013-02-12 20:16:00,
2013-02-12 12:21:00,47.5,45.9,29.95,NNE,23,1.6,2.9,94,0.00,,,0.00,WUHU216HW,2013-02-12 20:21:00,
2013-02-12 12:26:00,47.3,46.0,29.95,NE,45,1.6,1.6,95,0.00,,,0.00,WUHU216HW,2013-02-12 20:26:00,
2013-02-12 12:31:00,47.3,46.0,29.94,North,0,0.7,2.0,95,0.00,,,0.00,WUHU216HW,2013-02-12 20:31:00,
2013-02-12 12:36:00,47.5,45.9,29.93,NNE,23,1.1,2.0,94,0.00,,,0.00,WUHU216HW,2013-02-12 20:36:00,
2013-02-12 12:41:00,47.5,46.2,29.93,North,0,2.0,2.5,95,0.00,,,0.00,WUHU216HW,2013-02-12 20:41:00,
2013-02-12 12:46:00,47.3,46.0,29.93,NW,315,1.1,2.5,95,0.00,,,0.00,WUHU216HW,2013-02-12 20:46:00,
2013-02-12 12:51:00,47.5,45.9,29.93,NNE,23,1.8,2.9,94,0.00,,,0.00,WUHU216HW,2013-02-12 20:51:00,
2013-02-12 12:56:00,47.3,45.7,29.93,North,0,1.8,2.9,94,0.00,,,0.00,WUHU216HW,2013-02-12 20:56:00,
2013-02-12 13:01:00,47.3,45.7,29.93,North,0,0.4,4.3,94,0.00,,,0.00,WUHU216HW,2013-02-12 21:01:00,
2013-02-12 13:06:00,47.2,45.5,29.93,South,180,0.4,4.3,94,0.00,,,0.00,WUHU216HW,2013-02-12 21:06:00,
2013-02-12 13:11:00,47.2,45.5,29.93,NE,45,1.8,3.4,94,0.00,,,0.00,WUHU216HW,2013-02-12 21:11:00,
2013-02-12 13:16:00,47.2,45.5,29.93,North,0,1.1,3.4,94,0.00,,,0.00,WUHU216HW,2013-02-12 21:16:00,
2013-02-12 13:21:00,47.2,45.5,29.93,NNE,23,3.6,4.0,94,0.00,,,0.00,WUHU216HW,2013-02-12 21:21:00,
2013-02-12 13:26:00,47.0,45.4,29.92,NNW,338,1.8,4.0,94,0.00,,,0.00,WUHU216HW,2013-02-12 21:26:00,
2013-02-12 13:31:00,47.0,45.4,29.92,NNE,23,2.5,3.6,94,0.00,,,0.00,WUHU216HW,2013-02-12 21:31:00,
2013-02-12 13:36:00,47.2,45.5,29.92,North,0,1.6,3.4,94,0.00,,,0.00,WUHU216HW,2013-02-12 21:36:00,
2013-02-12 13:41:00,47.2,45.5,29.92,NNW,338,0.9,2.7,94,0.00,,,0.00,WUHU216HW,2013-02-12 21:41:00,
2013-02-12 13:46:00,47.2,45.5,29.92,NNW,338,0.9,2.0,94,0.00,,,0.00,WUHU216HW,2013-02-12 21:46:00,
2013-02-12 13:51:00,47.2,45.5,29.92,NE,45,1.8,2.5,94,0.00,,,0.00,WUHU216HW,2013-02-12 21:51:00,
2013-02-12 13:56:00,47.2,45.5,29.91,North,0,1.1,2.9,94,0.00,,,0.00,WUHU216HW,2013-02-12 21:56:00,
2013-02-12 14:01:00,47.2,45.5,29.91,NNE,23,1.1,2.9,94,0.00,,,0.00,WUHU216HW,2013-02-12 22:01:00,
2013-02-12 14:06:00,47.2,45.5,29.90,NNE,23,0.0,2.5,94,0.00,,,0.00,WUHU216HW,2013-02-12 22:06:00,
2013-02-12 14:11:00,47.2,45.5,29.89,NNE,23,0.0,1.6,94,0.00,,,0.00,WUHU216HW,2013-02-12 22:11:00,
2013-02-12 14:16:00,47.2,45.5,29.89,WNW,293,1.1,2.0,94,0.00,,,0.00,WUHU216HW,2013-02-12 22:16:00,
2013-02-12 14:21:00,47.0,45.4,29.89,NE,45,2.0,2.0,94,0.00,,,0.00,WUHU216HW,2013-02-12 22:21:00,
2013-02-12 14:26:00,47.0,45.4,29.89,NE,45,0.0,3.1,94,0.00,,,0.00,WUHU216HW,2013-02-12 22:26:00,
2013-02-12 14:31:00,47.0,45.4,29.89,ENE,68,1.8,3.1,94,0.00,,,0.00,WUHU216HW,2013-02-12 22:31:00,
2013-02-12 14:36:00,47.0,45.4,29.90,NNE,23,0.4,3.1,94,0.00,,,0.00,WUHU216HW,2013-02-12 22:36:00,
2013-02-12 14:41:00,46.8,45.2,29.90,North,0,1.1,3.4,94,0.01,,,0.01,WUHU216HW,2013-02-12 22:41:00,
2013-02-12 14:46:00,46.8,45.2,29.90,NNE,23,2.2,3.4,94,0.01,,,0.01,WUHU216HW,2013-02-12 22:46:00,
2013-02-12 14:51:00,46.6,45.0,29.90,NE,45,0.7,3.8,94,0.01,,,0.01,WUHU216HW,2013-02-12 22:51:00,
2013-02-12 14:56:00,46.4,44.8,29.90,NE,45,0.0,3.8,94,0.01,,,0.01,WUHU216HW,2013-02-12 22:56:00,
2013-02-12 15:01:00,46.4,45.1,29.90,NNE,23,0.0,1.1,95,0.01,,,0.01,WUHU216HW,2013-02-12 23:01:00,
2013-02-12 15:06:00,46.4,45.1,29.90,North,0,0.4,1.8,95,0.01,,,0.01,WUHU216HW,2013-02-12 23:06:00,
2013-02-12 15:11:00,46.4,44.8,29.90,North,0,1.8,1.8,94,0.01,,,0.01,WUHU216HW,2013-02-12 23:11:00,
2013-02-12 15:16:00,46.4,44.8,29.89,ENE,68,1.3,2.2,94,0.01,,,0.01,WUHU216HW,2013-02-12 23:16:00,
2013-02-12 15:21:00,46.6,45.0,29.88,North,0,1.8,2.2,94,0.01,,,0.01,WUHU216HW,2013-02-12 23:21:00,
2013-02-12 15:26:00,46.6,45.0,29.89,North,0,0.0,1.8,94,0.01,,,0.01,WUHU216HW,2013-02-12 23:26:00,
2013-02-12 15:31:00,46.8,45.2,29.89,North,0,1.1,1.8,94,0.01,,,0.01,WUHU216HW,2013-02-12 23:31:00,
2013-02-12 15:36:00,46.8,45.2,29.89,NNE,23,1.8,1.8,94,0.00,,,0.01,WUHU216HW,2013-02-12 23:36:00,
2013-02-12 15:41:00,46.8,45.2,29.89,NE,45,1.1,1.8,94,0.00,,,0.01,WUHU216HW,2013-02-12 23:41:00,
2013-02-12 15:46:00,46.8,45.2,29.89,NE,45,1.6,1.8,94,0.00,,,0.01,WUHU216HW,2013-02-12 23:46:00,
2013-02-12 15:51:00,46.8,45.2,29.88,North,0,2.5,2.5,94,0.00,,,0.01,WUHU216HW,2013-02-12 23:51:00,
2013-02-12 15:56:00,46.8,45.2,29.87,NE,45,1.8,2.5,94,0.00,,,0.01,WUHU216HW,2013-02-12 23:56:00,
2013-02-12 16:01:00,46.8,45.2,29.87,North,0,1.3,2.5,94,0.00,,,0.01,WUHU216HW,2013-02-13 00:01:00,
2013-02-12 16:06:00,46.8,45.2,29.88,NNW,338,1.6,2.2,94,0.00,,,0.01,WUHU216HW,2013-02-13 00:06:00,
2013-02-12 16:11:00,46.8,45.2,29.87,East,90,1.3,2.0,94,0.00,,,0.01,WUHU216HW,2013-02-13 00:11:00,
2013-02-12 16:16:00,46.6,45.0,29.88,North,0,1.6,2.0,94,0.00,,,0.01,WUHU216HW,2013-02-13 00:16:00,
2013-02-12 16:21:00,46.6,45.0,29.89,North,0,0.9,2.0,94,0.00,,,0.01,WUHU216HW,2013-02-13 00:21:00,
2013-02-12 16:26:00,46.6,45.0,29.89,ENE,68,0.7,1.6,94,0.00,,,0.01,WUHU216HW,2013-02-13 00:26:00,
2013-02-12 16:31:00,46.6,45.0,29.89,ENE,68,0.0,1.1,94,0.00,,,0.01,WUHU216HW,2013-02-13 00:31:00,
2013-02-12 16:36:00,46.6,45.0,29.89,NNE,23,0.4,1.6,94,0.00,,,0.01,WUHU216HW,2013-02-13 00:36:00,
2013-02-12 16:41:00,46.4,44.8,29.89,NNE,23,1.1,1.6,94,0.00,,,0.01,WUHU216HW,2013-02-13 00:41:00,
2013-02-12 16:46:00,46.4,44.8,29.88,NNE,23,0.7,1.3,94,0.00,,,0.01,WUHU216HW,2013-02-13 00:46:00,
2013-02-12 16:51:00,46.4,44.8,29.88,NNE,23,0.2,1.8,94,0.00,,,0.01,WUHU216HW,2013-02-13 00:51:00,
2013-02-12 16:56:00,46.4,44.8,29.88,North,0,0.4,1.8,94,0.00,,,0.01,WUHU216HW,2013-02-13 00:56:00,
2013-02-12 17:01:00,46.4,44.8,29.88,NNE,23,0.4,1.3,94,0.00,,,0.01,WUHU216HW,2013-02-13 01:01:00,
2013-02-12 17:06:00,46.4,45.1,29.88,North,0,0.9,1.3,95,0.00,,,0.01,WUHU216HW,2013-02-13 01:06:00,
2013-02-12 17:11:00,46.4,45.1,29.88,North,0,1.8,2.7,95,0.00,,,0.01,WUHU216HW,2013-02-13 01:11:00,
2013-02-12 17:16:00,46.4,44.8,29.88,NNE,23,0.0,2.7,94,0.00,,,0.01,WUHU216HW,2013-02-13 01:16:00,
2013-02-12 17:21:00,46.4,45.1,29.88,NE,45,2.2,2.2,95,0.00,,,0.01,WUHU216HW,2013-02-13 01:21:00,
2013-02-12 17:26:00,46.4,45.1,29.88,NE,45,0.4,2.2,95,0.00,,,0.01,WUHU216HW,2013-02-13 01:26:00,
2013-02-12 17:31:00,46.4,45.1,29.88,North,0,1.1,3.1,95,0.00,,,0.01,WUHU216HW,2013-02-13 01:31:00,
2013-02-12 17:36:00,46.4,45.1,29.88,NE,45,0.7,3.1,95,0.00,,,0.01,WUHU216HW,2013-02-13 01:36:00,
2013-02-12 17:41:00,46.3,44.9,29.88,NNE,23,1.6,1.6,95,0.00,,,0.01,WUHU216HW,2013-02-13 01:41:00,
2013-02-12 17:46:00,46.3,44.9,29.88,NNE,23,0.9,2.5,95,0.00,,,0.01,WUHU216HW,2013-02-13 01:46:00,
2013-02-12 17:51:00,46.3,44.9,29.88,North,0,1.1,2.5,95,0.00,,,0.01,WUHU216HW,2013-02-13 01:51:00,
2013-02-12 17:56:00,46.3,44.9,29.87,NNE,23,1.6,1.6,95,0.00,,,0.01,WUHU216HW,2013-02-13 01:56:00,
2013-02-12 18:01:00,46.3,44.9,29.88,East,90,1.1,1.6,95,0.00,,,0.01,WUHU216HW,2013-02-13 02:01:00,
2013-02-12 18:06:00,46.3,44.9,29.87,North,0,0.2,1.6,95,0.00,,,0.01,WUHU216HW,2013-02-13 02:06:00,
2013-02-12 18:11:00,46.3,44.9,29.87,NNE,23,1.3,1.3,95,0.00,,,0.01,WUHU216HW,2013-02-13 02:11:00,
2013-02-12 18:16:00,46.3,44.9,29.87,North,0,1.8,1.8,95,0.00,,,0.01,WUHU216HW,2013-02-13 02:16:00,
2013-02-12 18:21:00,46.3,44.9,29.88,NNW,338,0.4,1.8,95,0.00,,,0.01,WUHU216HW,2013-02-13 02:21:00,
2013-02-12 18:26:00,46.3,44.9,29.87,NNE,23,0.9,3.1,95,0.00,,,0.01,WUHU216HW,2013-02-13 02:26:00,
2013-02-12 18:31:00,46.3,44.9,29.87,NNE,23,2.0,3.1,95,0.00,,,0.01,WUHU216HW,2013-02-13 02:31:00,
2013-02-12 18:36:00,46.3,44.9,29.87,East,90,0.7,2.0,95,0.00,,,0.01,WUHU216HW,2013-02-13 02:36:00,
2013-02-12 18:41:00,46.3,44.9,29.87,ENE,68,1.1,2.0,95,0.00,,,0.01,WUHU216HW,2013-02-13 02:41:00,
2013-02-12 18:46:00,46.4,45.1,29.87,ENE,68,1.8,2.9,95,0.00,,,0.01,WUHU216HW,2013-02-13 02:46:00,
2013-02-12 18:51:00,46.4,45.1,29.86,ENE,68,2.7,2.9,95,0.00,,,0.01,WUHU216HW,2013-02-13 02:51:00,
2013-02-12 18:56:00,46.4,45.1,29.86,ENE,68,3.4,3.4,95,0.00,,,0.01,WUHU216HW,2013-02-13 02:56:00,
2013-02-12 19:01:00,46.4,45.1,29.86,NNE,23,2.7,3.4,95,0.00,,,0.01,WUHU216HW,2013-02-13 03:01:00,
2013-02-12 19:06:00,46.4,45.1,29.86,NNW,338,1.1,3.4,95,0.00,,,0.01,WUHU216HW,2013-02-13 03:06:00,
2013-02-12 19:11:00,46.4,45.1,29.86,NW,315,1.6,2.7,95,0.00,,,0.01,WUHU216HW,2013-02-13 03:11:00,
2013-02-12 19:16:00,46.4,45.1,29.86,NNE,23,1.8,3.1,95,0.00,,,0.01,WUHU216HW,2013-02-13 03:16:00,
2013-02-12 19:21:00,46.4,45.1,29.86,NE,45,0.2,3.1,95,0.00,,,0.01,WUHU216HW,2013-02-13 03:21:00,
2013-02-12 19:26:00,46.4,45.1,29.86,NW,315,0.9,3.4,95,0.00,,,0.01,WUHU216HW,2013-02-13 03:26:00,
2013-02-12 19:31:00,46.6,45.3,29.86,NNE,23,1.1,3.4,95,0.00,,,0.01,WUHU216HW,2013-02-13 03:31:00,
2013-02-12 19:36:00,46.6,45.3,29.86,North,0,2.9,2.9,95,0.00,,,0.01,WUHU216HW,2013-02-13 03:36:00,
2013-02-12 19:41:00,46.6,45.3,29.86,NE,45,1.1,3.4,95,0.00,,,0.01,WUHU216HW,2013-02-13 03:41:00,
2013-02-12 19:46:00,46.6,45.3,29.86,North,0,3.1,3.4,95,0.00,,,0.01,WUHU216HW,2013-02-13 03:46:00,
2013-02-12 19:51:00,46.6,45.0,29.86,NNE,23,1.8,3.1,94,0.00,,,0.01,WUHU216HW,2013-02-13 03:51:00,
2013-02-12 19:56:00,46.6,45.0,29.86,North,0,1.1,3.1,94,0.00,,,0.01,WUHU216HW,2013-02-13 03:56:00,
2013-02-12 20:01:00,46.6,45.0,29.86,NNE,23,0.9,2.5,94,0.00,,,0.01,WUHU216HW,2013-02-13 04:01:00,
2013-02-12 20:06:00,46.4,44.8,29.86,ENE,68,2.0,2.0,94,0.00,,,0.01,WUHU216HW,2013-02-13 04:06:00,
2013-02-12 20:11:00,46.4,44.8,29.86,NNW,338,1.1,2.0,94,0.00,,,0.01,WUHU216HW,2013-02-13 04:11:00,
2013-02-12 20:16:00,46.6,45.0,29.86,West,270,2.5,5.1,94,0.00,,,0.01,WUHU216HW,2013-02-13 04:16:00,
2013-02-12 20:21:00,46.6,45.0,29.86,NW,315,2.0,5.1,94,0.00,,,0.01,WUHU216HW,2013-02-13 04:21:00,
2013-02-12 20:26:00,46.6,45.0,29.86,NNW,338,0.4,3.4,94,0.00,,,0.01,WUHU216HW,2013-02-13 04:26:00,
2013-02-12 20:31:00,46.6,45.0,29.86,North,0,0.9,3.4,94,0.00,,,0.01,WUHU216HW,2013-02-13 04:31:00,
2013-02-12 20:36:00,46.6,45.0,29.86,SE,135,1.6,1.6,94,0.00,,,0.01,WUHU216HW,2013-02-13 04:36:00,
2013-02-12 20:41:00,46.6,45.0,29.86,NNE,23,0.7,1.8,94,0.00,,,0.01,WUHU216HW,2013-02-13 04:41:00,
2013-02-12 20:46:00,46.6,45.0,29.86,North,0,0.7,1.8,94,0.00,,,0.01,WUHU216HW,2013-02-13 04:46:00,
2013-02-12 20:51:00,46.6,45.0,29.86,WSW,248,0.7,2.5,94,0.00,,,0.01,WUHU216HW,2013-02-13 04:51:00,
2013-02-12 20:56:00,46.6,45.0,29.86,SSE,158,1.8,2.5,94,0.00,,,0.01,WUHU216HW,2013-02-13 04:56:00,
2013-02-12 21:00:00,46.6,45.0,29.86,SW,225,2.0,2.0,94,0.00,,,0.01,WUHU216HW,2013-02-13 05:00:00,
2013-02-12 21:05:00,46.6,45.0,29.86,NNW,338,0.4,2.0,94,0.00,,,0.01,WUHU216HW,2013-02-13 05:05:00,
2013-02-12 21:10:00,46.6,45.0,29.85,NNW,338,0.4,2.0,94,0.00,,,0.01,WUHU216HW,2013-02-13 05:10:00,
2013-02-12 21:15:00,46.6,45.0,29.86,NW,315,2.2,2.2,94,0.00,,,0.01,WUHU216HW,2013-02-13 05:15:00,
2013-02-12 21:20:00,46.8,45.2,29.85,NNW,338,1.1,4.3,94,0.00,,,0.01,WUHU216HW,2013-02-13 05:20:00,
2013-02-12 21:25:00,46.8,45.2,29.85,NNW,338,4.3,7.6,94,0.00,,,0.01,WUHU216HW,2013-02-13 05:25:00,
2013-02-12 21:30:00,46.8,45.5,29.85,NE,45,2.9,7.6,95,0.00,,,0.01,WUHU216HW,2013-02-13 05:30:00,
2013-02-12 21:35:00,46.8,45.2,29.85,NE,45,3.4,4.5,94,0.00,,,0.01,WUHU216HW,2013-02-13 05:35:00,
2013-02-12 21:40:00,46.8,45.2,29.85,ESE,113,0.7,3.4,94,0.00,,,0.01,WUHU216HW,2013-02-13 05:40:00,
2013-02-12 21:45:00,46.8,45.2,29.85,NNE,23,3.8,4.3,94,0.00,,,0.01,WUHU216HW,2013-02-13 05:45:00,
2013-02-12 21:50:00,46.8,45.2,29.86,ENE,68,1.1,4.3,94,0.00,,,0.01,WUHU216HW,2013-02-13 05:50:00,
2013-02-12 21:55:00,46.8,45.2,29.86,ENE,68,1.8,3.8,94,0.00,,,0.01,WUHU216HW,2013-02-13 05:55:00,
2013-02-12 22:00:00,46.8,45.2,29.86,North,0,0.2,4.0,94,0.00,,,0.01,WUHU216HW,2013-02-13 06:00:00,
2013-02-12 22:05:00,46.8,45.2,29.87,NNE,23,0.4,4.0,94,0.00,,,0.01,WUHU216HW,2013-02-13 06:05:00,
2013-02-12 22:10:00,47.0,45.4,29.86,North,0,0.9,1.6,94,0.00,,,0.01,WUHU216HW,2013-02-13 06:10:00,
2013-02-12 22:15:00,46.8,45.2,29.86,NNE,23,1.1,3.6,94,0.00,,,0.01,WUHU216HW,2013-02-13 06:15:00,
2013-02-12 22:20:00,46.8,45.2,29.86,NNW,338,0.4,3.6,94,0.00,,,0.01,WUHU216HW,2013-02-13 06:20:00,
2013-02-12 22:25:00,46.8,45.2,29.86,North,0,0.7,2.5,94,0.00,,,0.01,WUHU216HW,2013-02-13 06:25:00,
2013-02-12 22:30:00,46.8,45.2,29.86,West,270,1.6,1.8,94,0.00,,,0.01,WUHU216HW,2013-02-13 06:30:00,
2013-02-12 22:35:00,46.8,45.2,29.87,NNW,338,0.9,3.6,94,0.00,,,0.01,WUHU216HW,2013-02-13 06:35:00,
2013-02-12 22:40:00,46.8,45.2,29.87,SW,225,1.1,4.3,94,0.00,,,0.01,WUHU216HW,2013-02-13 06:40:00,
2013-02-12 22:45:00,47.0,45.4,29.87,NW,315,0.4,4.3,94,0.00,,,0.01,WUHU216HW,2013-02-13 06:45:00,
2013-02-12 22:50:00,47.0,45.4,29.86,NNW,338,2.0,3.8,94,0.00,,,0.01,WUHU216HW,2013-02-13 06:50:00,
2013-02-12 22:55:00,46.8,44.9,29.86,WSW,248,1.1,3.8,93,0.00,,,0.01,WUHU216HW,2013-02-13 06:55:00,
2013-02-12 23:00:00,46.8,44.9,29.86,ENE,68,0.4,2.2,93,0.00,,,0.01,WUHU216HW,2013-02-13 07:00:00,
2013-02-12 23:05:00,46.8,44.9,29.86,NW,315,0.7,2.5,93,0.00,,,0.01,WUHU216HW,2013-02-13 07:05:00,
2013-02-12 23:10:00,46.8,44.9,29.86,NE,45,1.3,2.5,93,0.00,,,0.01,WUHU216HW,2013-02-13 07:10:00,
2013-02-12 23:15:00,46.8,44.9,29.87,North,0,0.9,2.0,93,0.00,,,0.01,WUHU216HW,2013-02-13 07:15:00,
2013-02-12 23:20:00,46.8,44.9,29.86,ESE,113,1.3,4.3,93,0.00,,,0.01,WUHU216HW,2013-02-13 07:20:00,
2013-02-12 23:25:00,46.8,44.9,29.87,NW,315,0.0,4.3,93,0.00,,,0.01,WUHU216HW,2013-02-13 07:25:00,
2013-02-12 23:30:00,46.8,44.9,29.87,West,270,0.7,2.2,93,0.00,,,0.01,WUHU216HW,2013-02-13 07:30:00,
2013-02-12 23:35:00,46.8,44.9,29.87,NW,315,0.7,3.1,93,0.00,,,0.01,WUHU216HW,2013-02-13 07:35:00,
2013-02-12 23:40:00,46.8,44.9,29.87,NW,315,0.0,3.1,93,0.00,,,0.01,WUHU216HW,2013-02-13 07:40:00,
2013-02-12 23:45:00,46.8,44.6,29.87,WSW,248,1.8,1.8,92,0.00,,,0.01,WUHU216HW,2013-02-13 07:45:00,
2013-02-12 23:50:00,47.0,45.1,29.88,SSW,203,1.8,1.8,93,0.00,,,0.01,WUHU216HW,2013-02-13 07:50:00,
2013-02-12 23:55:00,47.0,44.8,29.88,SW,225,0.4,1.8,92,0.00,,,0.01,WUHU216HW,2013-02-13 07:55:00,